Location: Lombard
(41.8800°N, 88.0078°W)
Time: 02:34:41
(UTC-06:00)

BlueWalker 3 - Pass Details

Date: 21 January 2026
Orbit: 450 x 461 km, 53.2° (Epoch: 11 February)

Event Time Altitude Azimuth Distance (km) Brightness Sun altitude
Rises 19:10:45 0° 251° (WSW) 2,448 6.7 -25.3°
Reaches altitude 10° 19:12:58 10° 260° (W) 1,577 5.5 -25.7°
Enters shadow 19:15:19 31° 292° (WNW) 818 3.5 -26.2°
